Content
SEND FEEDBACK

Daily
Averages
Monthly
Summary
United States of America

CANFIELD, OHIO


Home > North America > United States > Ohio
Elevation: 1134 feet     Latitude: 41 01N     Longitude: 080 46W

WEATHER
 
SELECT A DAY
Number of Records: 205,303;   Date Range: 1/1/95 - 9/16/14
 
SHARE

PRINT THIS DATA

[ ← Previous Day ]
WEATHER ALMANAC - JANUARY 31, 2013
[ Next Day → ]
[ °C ]   °F
Weather ElementAverageHighLow
Temperature25.1 °F34 °F (1:51 am)18 °F (11:51 pm)
Dewpoint16.8 °F30 °F (1:51 am)7 °F (11:51 pm)
Humidity71.3 %87 % (2:17 am)55 % (12:51 pm)
Barometer29.62 in29.86 in (10:51 pm)29.31 in (1:51 am)
Wind Speed19.7 mph28.8 mph (2:11 am)
Wind Gust41.4 mph (2:51 am)
Weather ElementAverage
Visibility4.9 mi
Wind DirectionWSW (256.7 °)

Weather ElementTotal
Precipitation0.04 in
Heating Degree Days39 (Base 65)
Averaged from 48 records on January 31, 2013
WEATHER CONDITIONS BREAKOUT
WIND DIRECTION BREAKOUT
WEATHER BY HOUR - JANUARY 31, 2013
[ °C ]   °F
Local TimeTemperatureDewpointHumidityBarometerVisibilityWind DirectionWind SpeedGust SpeedPrecipitationEventsConditions
1:51 AM34.0 °F30.0 °F85 %29.31 in9.0 miWSW (250°)19.6 mph31.1 mph0.00 inSnowLight Snow
2:11 AM33.8 °F28.4 °F81 %29.31 in1.2 miWest (260°)28.8 mph36.8 mph0.00 inSnowLight Snow
2:17 AM32.0 °F28.4 °F87 %29.32 in3.0 miWest (260°)23.0 mph36.8 mph0.00 inSnowLight Snow
2:51 AM33.1 °F25.0 °F72 %29.36 in8.0 miWest (260°)21.9 mph41.4 mph0.01 inSnowLight Snow
3:12 AM33.8 °F24.8 °F70 %29.35 in8.0 miWest (260°)18.4 mph32.2 mph0.00 inSnowLight Snow
3:51 AM32.0 °F23.0 °F69 %29.38 in9.0 miWest (260°)26.5 mph39.1 mphSnowLight Snow
4:51 AM30.0 °F21.0 °F69 %29.42 in7.0 miWest (280°)19.6 mph36.8 mph0.00 inSnowLight Snow
4:58 AM30.2 °F21.2 °F69 %29.41 in9.0 miWest (270°)24.2 mph35.7 mph0.00 inSnowLight Snow
5:51 AM30.0 °F19.9 °F66 %29.45 in9.0 miWest (260°)19.6 mph31.1 mph0.00 inSnowLight Snow
6:11 AM28.4 °F21.2 °F74 %29.45 in1.8 miWest (260°)18.4 mph33.4 mph0.00 inSnowLight Snow
6:18 AM28.4 °F21.2 °F74 %29.46 in2.5 miWest (270°)20.7 mph28.8 mph0.00 inSnowLight Snow
6:51 AM28.4 °F19.4 °F69 %29.51 in4.0 miWest (260°)25.3 mph38.0 mphSnowLight Snow
7:14 AM26.6 °F19.4 °F74 %29.51 in1.5 miWest (260°)25.3 mph33.4 mph0.00 inSnowLight Snow
7:23 AM26.6 °F19.4 °F74 %29.52 in0.5 miWest (260°)20.7 mph35.7 mph0.00 inSnowLight Snow
7:28 AM26.6 °F21.2 °F80 %29.52 in2.0 miWest (260°)19.6 mph35.7 mphSnowLight Snow
7:51 AM25.0 °F19.0 °F78 %29.56 in1.5 miWest (270°)24.2 mph34.5 mph0.00 inSnowLight Snow
8:26 AM26.6 °F15.8 °F64 %29.56 in7.0 miWSW (250°)23.0 mph39.1 mph0.00 inOvercast
8:51 AM25.0 °F16.0 °F69 %29.60 in2.0 miWSW (250°)19.6 mph29.9 mph0.00 inSnowLight Snow
8:58 AM24.8 °F17.6 °F74 %29.59 in0.5 miWest (260°)20.7 mph29.9 mph0.00 inSnowSnow
9:25 AM24.8 °F17.6 °F74 %29.60 in3.0 miWSW (250°)21.9 mph32.2 mph0.00 inSnowLight Snow
9:49 AM23.0 °F17.6 °F80 %29.61 in0.8 miWSW (240°)20.7 mph25.3 mphSnowLight Snow
9:51 AM23.0 °F18.0 °F81 %29.64 in0.5 miWSW (250°)21.9 mphSnowSnow
10:13 AM23.0 °F15.8 °F74 %29.62 in1.0 miWest (260°)24.2 mph34.5 mph0.00 inSnowLight Snow
10:20 AM24.8 °F15.8 °F69 %29.63 in3.0 miWSW (250°)20.7 mph34.5 mph0.00 inSnowLight Snow
10:42 AM24.8 °F14.0 °F64 %29.64 in7.0 miWest (260°)19.6 mph29.9 mph0.00 inOvercast
10:51 AM24.1 °F12.9 °F62 %29.66 in9.0 miWest (260°)20.7 mph29.9 mph0.00 inOvercast
11:51 AM24.1 °F12.0 °F60 %29.68 in9.0 miWSW (250°)16.1 mph0.00 inSnowLight Snow
12:20 PM23.0 °F14.0 °F68 %29.65 in0.8 miWest (260°)24.2 mph38.0 mph0.00 inSnowLight Snow
12:28 PM23.0 °F12.2 °F63 %29.66 in7.0 miWSW (250°)23.0 mph38.0 mph0.00 inSnowLight Snow
12:51 PM24.1 °F10.0 °F55 %29.70 in7.0 miWSW (250°)25.3 mph35.7 mphSnowLight Snow
1:51 PM21.9 °F9.0 °F58 %29.72 in8.0 miWSW (250°)24.2 mph34.5 mph0.00 inSnowLight Snow
2:51 PM21.9 °F10.0 °F60 %29.74 in6.0 miWest (270°)19.6 mph31.1 mph0.00 inSnowLight Snow
3:51 PM23.0 °F10.0 °F58 %29.76 in8.0 miWest (260°)17.3 mph25.3 mph0.00 inSnowLight Snow
4:51 PM23.0 °F12.0 °F63 %29.77 in10.0 miWest (260°)21.9 mph33.4 mph0.00 inOvercast
5:02 PM21.2 °F12.2 °F68 %29.73 in3.0 miWest (260°)12.7 mph25.3 mph0.00 inSnowLight Snow
5:07 PM23.0 °F14.0 °F68 %29.73 in1.0 miWSW (250°)9.2 mph0.00 inSnowLight Snow
5:40 PM21.2 °F15.8 °F80 %29.74 in3.0 miWSW (240°)10.4 mph0.00 inSnowLight Snow
5:51 PM21.9 °F16.0 °F78 %29.79 in1.5 miWSW (240°)12.7 mph0.00 inSnowLight Snow
6:09 PM21.2 °F17.6 °F86 %29.74 in0.5 miWSW (250°)16.1 mph24.2 mph0.00 inSnowSnow
6:35 PM21.2 °F17.6 °F86 %29.75 in0.8 miWSW (250°)10.4 mph0.01 inSnowLight Snow
6:49 PM21.2 °F17.6 °F86 %29.75 in0.8 miWSW (240°)16.1 mph21.9 mphSnowLight Snow
6:51 PM21.9 °F17.1 °F82 %29.80 in7.0 miWSW (240°)16.1 mph23.0 mph0.02 inOvercast
7:12 PM21.2 °F15.8 °F80 %29.75 in10.0 miWSW (250°)16.1 mph28.8 mphMostly Cloudy
7:51 PM21.9 °F12.9 °F68 %29.81 in9.0 miWest (260°)18.4 mph27.6 mph0.00 inSnowLight Snow
8:51 PM21.9 °F8.1 °F55 %29.83 in10.0 miWest (260°)17.3 mph0.00 inMostly Cloudy
9:51 PM21.0 °F10.0 °F63 %29.85 in9.0 miWest (260°)17.3 mph29.9 mph0.00 inSnowLight Snow
10:51 PM19.0 °F12.0 °F74 %29.86 in4.0 miWest (270°)18.4 mph27.6 mph0.00 inSnowLight Snow
11:51 PM18.0 °F7.0 °F62 %29.86 in10.0 miWest (270°)13.8 mph23.0 mph0.00 inMostly Cloudy
Hourly data recorded from KYNG, located miles away from Canfield, Ohio







STORIES FROM OUR PARTNERS